Regional Weather Roundup
Issued by NWS

Home | Current Version | Previous Version | Text Only | Print | Product List | Glossary Off
Versions: 1 2 3 4 5 6 7 8 9 10 11 12 13 14 15 16 17 18 19 20 21 22 23 24 25 26 27 28 29 30 31 32 33 34 35 36 37 38 39 40 41 42 43 44 45 46 47 48 49 50

000
ASUS43 KLMK 282110
RWRKY
KENTUCKY REGIONAL WEATHER ROUNDUP
NATIONAL WEATHER SERVICE LOUISVILLE KY
500 PM EDT SUN AUG 28 2016

NOTE "FAIR" INDICATES FEW OR NO CLOUDS BELOW 12,000 FEET
WITH NO SIGNIFICANT WEATHER AND/OR OBSTRUCTIONS TO VISIBILITY.

KYZ001>023-026-027-061>063-070>075-282200-
WESTERN AND SOUTH CENTRAL KENTUCKY

CITY           SKY/WX    TMP DP  RH WIND       PRES   REMARKS
PADUCAH        MOSUNNY   89  74  60 S8G17     30.07F HX  98
HENDERSON      CLOUDY    88  73  62 NW3       30.08F HX  96
OWENSBORO      SUNNY     92  75  57 CALM      30.09F HX 102
HOPKINSVILLE   MOSUNNY   89  75  62 N7        30.08F HX  99
BOWLING GREEN  SUNNY     92  70  48 CALM      30.10F HX  97
GLASGOW        SUNNY     92  69  47 CALM      30.11S HX  97
$$

KYZ024-025-028>034-038-045-046-053-282200-
NORTH CENTRAL KENTUCKY

CITY           SKY/WX    TMP DP  RH WIND       PRES   REMARKS
LOUISVILLE/SDF MOSUNNY   92  69  47 NE8       30.10S HX  97
LOUISVILLE/LOU SUNNY     95  70  44 N6        30.11S HX 101
FORT KNOX      MOSUNNY   91  72  52 N6        30.10F HX  99
$$

KYZ035>037-039>044-047>052-055>060-089>105-282200-
NORTHEAST KENTUCKY

CITY           SKY/WX    TMP DP  RH WIND       PRES   REMARKS
LEXINGTON      CLOUDY    74  66  76 NE7       30.16F
COVINGTON      MOSUNNY   93  71  48 CALM      30.15S HX 100
FRANKFORT      TSTM      73  68  84 VRB3      30.17R
$$

KYZ054-064>069-076>088-106>120-282200-
SOUTHEAST KENTUCKY

CITY           SKY/WX    TMP DP  RH WIND       PRES   REMARKS
JACKSON        LGT RAIN  76  70  82 CALM      30.16F
LONDON         TSTM      72  65  78 E13G22    30.18S
SOMERSET       CLOUDY    90  66  45 CALM      30.13S HX  92
MIDDLESBORO    CLOUDY    77  68  72 N5        30.18R
MONTICELLO     CLEAR    N/A N/A N/A N15       30.13F
$$





USA.gov is the U.S. government's official web portal to all federal, state and local government web resources and services.